Weather History for KCVX - June, 2011

Change the Weather History Date:

Wednesday, June 15, 2011

  Actual Average Record
Temperature  
Mean Temperature 65 °F -  
Max Temperature 77 °F 77 °F 87 °F (2001)
Min Temperature 53 °F 57 °F 45 °F (2013)
Growing Degree Days 15 (Base 50)    
Moisture  
Dew Point 47 °F    
Average Humidity 53    
Maximum Humidity 77    
Minimum Humidity 29    
Precipitation  
Precipitation 0.00 in - - ()
Sea Level Pressure  
Sea Level Pressure 29.93 in    
Wind  
Wind Speed 7 mph (SE)    
Max Wind Speed 16 mph    
Max Gust Speed 26 mph    
Visibility 10 miles    
Events      
Averages and records for this station are not official NWS values.
T = Trace of Precipitation, MM = Missing Value Source: NWS Daily Summary

Daily Weather History Graph

Daily Weather History Graph

Search for Another Location

Airport or City:

Trip Planner

Search our weather history database for the weather conditions in past years. The results will help you decide how hot, cold, wet, or windy it might be!

Date:

Astronomy

Jun. 15, 2011 Rise Set
Actual Time 5:52 AM EDT 9:30 PM EDT
Civil Twilight 5:14 AM EDT 10:08 PM EDT
Nautical Twilight 4:24 AM EDT 10:58 PM EDT
Astronomical Twilight 3:17 AM EDT 12:06 AM EDT
Moon 9:37 PM EDT (6/15) 5:31 AM EDT (6/15)
Length of Visible Light 16h 53m
Length of Day
15h 38m
Full, 100% of the Moon is Illuminated
Jun 15
Full
Jun 15
Full
Jun 23
Last Quarter
Jul 1
New
Jul 8
First Quarter

Hourly Weather History & Observations

Time (EDT) Temp. Dew Point Humidity Pressure Visibility Wind Dir Wind Speed Gust Speed Precip Events Conditions
12:15 AM 60.8 °F 48.2 °F 63% 30.04 in 10.0 mi SE 4.6 mph - N/A   Clear
12:34 AM 59.0 °F 48.2 °F 67% 30.04 in 10.0 mi SE 4.6 mph - N/A   Clear
12:55 AM 59.0 °F 48.2 °F 67% 30.04 in 10.0 mi SE 4.6 mph - N/A   Clear
1:15 AM 59.0 °F 48.2 °F 67% 30.03 in 10.0 mi ESE 3.5 mph - N/A   Clear
1:34 AM 57.2 °F 46.4 °F 67% 30.03 in 10.0 mi SE 4.6 mph - N/A   Clear
1:55 AM 57.2 °F 46.4 °F 67% 30.02 in 10.0 mi ESE 4.6 mph - N/A   Clear
2:15 AM 59.0 °F 44.6 °F 59% 30.02 in 10.0 mi SE 3.5 mph - N/A   Clear
2:35 AM 55.4 °F 44.6 °F 67% 30.02 in 10.0 mi SSE 6.9 mph - N/A   Clear
2:55 AM 57.2 °F 44.6 °F 63% 30.02 in 10.0 mi SE 5.8 mph - N/A   Clear
3:15 AM 55.4 °F 44.6 °F 67% 30.01 in 10.0 mi SE 5.8 mph - N/A   Clear
3:35 AM 57.2 °F 44.6 °F 63% 30.01 in 10.0 mi SE 4.6 mph - N/A   Clear
3:55 AM 57.2 °F 42.8 °F 59% 30.01 in 10.0 mi SE 5.8 mph - N/A   Clear
4:14 AM 57.2 °F 42.8 °F 59% 29.99 in 10.0 mi ESE 5.8 mph - N/A   Clear
4:35 AM 55.4 °F 44.6 °F 67% 29.99 in 10.0 mi SSE 5.8 mph - N/A   Clear
4:54 AM 53.6 °F 44.6 °F 72% 29.99 in 10.0 mi SE 4.6 mph - N/A   Clear
5:15 AM 53.6 °F 44.6 °F 72% 29.99 in 10.0 mi SE 4.6 mph - N/A   Clear
5:35 AM 53.6 °F 44.6 °F 72% 29.98 in 10.0 mi ESE 3.5 mph - N/A   Clear
5:54 AM 53.6 °F 44.6 °F 72% 29.98 in 10.0 mi SE 4.6 mph - N/A   Clear
6:15 AM 53.6 °F 44.6 °F 72% 29.99 in 10.0 mi ESE 4.6 mph - N/A   Clear
6:35 AM 53.6 °F 44.6 °F 72% 29.99 in 10.0 mi ESE 5.8 mph - N/A   Clear
6:54 AM 53.6 °F 46.4 °F 77% 29.99 in 10.0 mi ESE 5.8 mph - N/A   Clear
7:15 AM 55.4 °F 46.4 °F 72% 30.01 in 10.0 mi ESE 4.6 mph - N/A   Clear
7:35 AM 55.4 °F 46.4 °F 72% 30.00 in 10.0 mi East 6.9 mph - N/A   Clear
7:54 AM 57.2 °F 48.2 °F 72% 29.99 in 10.0 mi ESE 6.9 mph - N/A   Clear
8:15 AM 59.0 °F 48.2 °F 67% 29.99 in 10.0 mi ESE 8.1 mph - N/A   Clear
8:35 AM 60.8 °F 50.0 °F 68% 29.98 in 10.0 mi East 6.9 mph - N/A   Clear
8:55 AM 60.8 °F 50.0 °F 68% 29.97 in 10.0 mi East 9.2 mph - N/A   Clear
9:15 AM 62.6 °F 51.8 °F 68% 29.97 in 10.0 mi East 6.9 mph - N/A   Clear
9:35 AM 62.6 °F 51.8 °F 68% 29.95 in 10.0 mi East 8.1 mph - N/A   Clear
9:55 AM 64.4 °F 51.8 °F 64% 29.94 in 10.0 mi East 9.2 mph - N/A   Clear
10:15 AM 66.2 °F 51.8 °F 60% 29.94 in 10.0 mi East 10.4 mph - N/A   Clear
10:34 AM 68.0 °F 50.0 °F 52% 29.94 in 10.0 mi SE 13.8 mph 17.3 mph N/A   Clear
11:14 AM 71.6 °F 48.2 °F 43% 29.92 in 10.0 mi SE 11.5 mph 21.9 mph N/A   Clear
11:35 AM 71.6 °F 46.4 °F 41% 29.92 in 10.0 mi SSE 16.1 mph 25.3 mph N/A   Clear
11:55 AM 73.4 °F 46.4 °F 38% 29.91 in 10.0 mi SE 12.7 mph 20.7 mph N/A   Clear
12:14 PM 73.4 °F 44.6 °F 36% 29.90 in 10.0 mi ESE 16.1 mph 21.9 mph N/A   Clear
12:35 PM 75.2 °F 44.6 °F 34% 29.90 in 10.0 mi SSE 11.5 mph 20.7 mph N/A   Clear
12:55 PM 75.2 °F 44.6 °F 34% 29.89 in 10.0 mi ESE 16.1 mph 21.9 mph N/A   Clear
1:14 PM 75.2 °F 44.6 °F 34% 29.88 in 10.0 mi SSE 15.0 mph 26.5 mph N/A   Clear
1:35 PM 75.2 °F 44.6 °F 34% 29.87 in 10.0 mi ESE 16.1 mph 23.0 mph N/A   Clear
2:14 PM 77.0 °F 42.8 °F 29% 29.86 in 10.0 mi SE 15.0 mph 23.0 mph N/A   Clear
2:35 PM 77.0 °F 42.8 °F 29% 29.85 in 10.0 mi SSE 15.0 mph 26.5 mph N/A   Clear
2:54 PM 77.0 °F 44.6 °F 32% 29.85 in 10.0 mi SE 15.0 mph 25.3 mph N/A   Clear
3:14 PM 77.0 °F 44.6 °F 32% 29.83 in 10.0 mi SSE 9.2 mph 19.6 mph N/A   Scattered Clouds
3:34 PM 77.0 °F 44.6 °F 32% 29.83 in 10.0 mi SE 12.7 mph 20.7 mph N/A   Clear
3:54 PM 77.0 °F 44.6 °F 32% 29.82 in 10.0 mi ESE 13.8 mph 21.9 mph N/A   Clear
4:15 PM 77.0 °F 44.6 °F 32% 29.81 in 10.0 mi SE 16.1 mph 23.0 mph N/A   Clear
4:35 PM 75.2 °F 46.4 °F 36% 29.81 in 10.0 mi SE 11.5 mph 19.6 mph N/A   Clear
4:54 PM 75.2 °F 48.2 °F 38% 29.80 in 10.0 mi SE 10.4 mph - N/A   Clear
5:15 PM 75.2 °F 46.4 °F 36% 29.80 in 10.0 mi SSE 13.8 mph 21.9 mph N/A   Clear
5:34 PM 75.2 °F 48.2 °F 38% 29.80 in 10.0 mi SE 9.2 mph - N/A   Clear
5:55 PM 75.2 °F 48.2 °F 38% 29.80 in 10.0 mi SE 6.9 mph - N/A   Clear
6:15 PM 75.2 °F 50.0 °F 41% 29.80 in 10.0 mi East 10.4 mph - N/A   Clear
6:34 PM 75.2 °F 48.2 °F 38% 29.80 in 10.0 mi SSE 10.4 mph 19.6 mph N/A   Clear
6:55 PM 75.2 °F 48.2 °F 38% 29.80 in 10.0 mi South 10.4 mph 17.3 mph N/A   Clear
7:15 PM 73.4 °F 48.2 °F 41% 29.80 in 10.0 mi SSE 6.9 mph 11.5 mph N/A   Clear
7:34 PM 73.4 °F 48.2 °F 41% 29.80 in 10.0 mi SSE 15.0 mph 18.4 mph N/A   Clear
7:55 PM 71.6 °F 48.2 °F 43% 29.80 in 10.0 mi SE 6.9 mph - N/A   Clear
8:15 PM 71.6 °F 46.4 °F 41% 29.80 in 10.0 mi SSE 9.2 mph - N/A   Clear
8:34 PM 69.8 °F 46.4 °F 43% 29.79 in 10.0 mi SE 5.8 mph - N/A   Clear
8:55 PM 69.8 °F 46.4 °F 43% 29.79 in 10.0 mi SE 5.8 mph - N/A   Clear
9:14 PM 69.8 °F 48.2 °F 46% 29.78 in 10.0 mi SE 4.6 mph - N/A   Clear
9:34 PM 68.0 °F 46.4 °F 46% 29.78 in 10.0 mi SE 3.5 mph - N/A   Clear
9:55 PM 68.0 °F 46.4 °F 46% 29.78 in 10.0 mi SE 3.5 mph - N/A   Clear
10:14 PM 66.2 °F 46.4 °F 49% 29.79 in 10.0 mi South 3.5 mph - N/A   Scattered Clouds
10:35 PM 66.2 °F 48.2 °F 52% 29.79 in 10.0 mi Calm Calm - N/A   Overcast
10:55 PM 66.2 °F 48.2 °F 52% 29.80 in 10.0 mi SSE 3.5 mph - N/A   Overcast
11:35 PM 66.2 °F 50.0 °F 56% 29.79 in 10.0 mi Calm Calm - N/A   Overcast
11:55 PM 66.2 °F 51.8 °F 60% 29.79 in 10.0 mi South 6.9 mph - N/A   Overcast